Location: Chevoux
(46.3801°N, 4.9476°E)
Time: 17:29:11
(UTC+00:00)

CZ-4C R/B - Pass Details

Date: 28 January 2021
Orbit: 617 x 1385 km, 63.4° (Epoch: 28 February)

Event Time Altitude Azimuth Distance (km) Brightness Sun altitude
Rises 18:00:46 0° 303° (WNW) 3,430 6.1 -14.2°
Reaches altitude 10° 18:04:02 10° 324° (NW) 2,637 5.1 -14.7°
Maximum altitude 18:08:07 18° 5° (N) 2,301 4.3 -15.4°
Enters shadow 18:11:47 12° 39° (NE) 2,803 4.5 -16.1°
